This demonstration page uses our WeatherBlox Daily Observations layout. Learn more.

Left ArrowRight Arrow

39.51506, -84.39828

Hourly Observations for May 8, 2020

Temp ( °F °C ) Dew Point ( °F °C ) Humidity (%) Winds ( mph kmh ) Pressure ( in mb ) Visibility ( mi km ) Precip ( " mm )
12:15 am 00:15 Cloudy 54 12.2 44 6.8 70 70 WSW 8 13 29.92 1013 N/A 0 0
12:35 am 00:35 Mostly Cloudy 54 12.2 43 6.2 67 67 SW 8 13 29.92 1013 N/A 0 0
12:55 am 00:55 Cloudy 55 12.6 44 6.4 66 66 WSW 6 9 29.92 1013 N/A 0 0
1:15 am 01:15 Mostly Cloudy 54 12.1 43 6.3 68 68 SW 8 13 29.91 1013 N/A 0 0
1:35 am 01:35 Cloudy 54 12.1 44 6.4 68 68 WSW 7 11 29.9 1013 N/A 0 0
1:55 am 01:55 Cloudy 54 12 44 6.7 70 70 SW 7 11 29.9 1013 N/A 0 0
2:15 am 02:15 Cloudy 54 12 44 6.7 70 70 SW 8 13 29.9 1013 N/A 0 0
2:35 am 02:35 Cloudy 55 12.5 43 6.3 66 66 SW 9 15 29.89 1012 N/A 0 0
2:55 am 02:55 Cloudy 54 12.1 44 6.8 70 70 WSW 6 9 29.89 1012 N/A 0 0
3:15 am 03:15 Cloudy 54 12.3 43 6.3 67 67 SW 8 13 29.88 1012 N/A 0 0
3:35 am 03:35 Cloudy 54 12.2 44 6.5 68 68 SW 9 15 29.88 1012 N/A 0 0
3:55 am 03:55 Cloudy 56 13.1 44 6.5 65 65 WSW 15 24 29.87 1012 N/A 0 0
4:15 am 04:15 Cloudy 53 11.9 46 7.7 76 76 WSW 15 24 29.87 1012 N/A 0 0
4:35 am 04:35 Cloudy 53 11.5 46 7.5 77 77 WSW 12 19 29.88 1012 N/A 0 0
4:55 am 04:55 Cloudy 52 11.2 45 7.4 78 78 SW 12 19 29.86 1011 N/A 0 0
5:15 am 05:15 Cloudy 52 11.3 45 7.3 77 77 WSW 8 13 29.86 1011 N/A 0 0
5:35 am 05:35 Cloudy 52 11.2 45 7.3 77 77 WSW 6 9 29.85 1011 N/A 0 0
5:55 am 05:55 Cloudy 52 11.3 45 7.1 76 76 WSW 9 15 29.85 1011 N/A 0 0
6:15 am 06:15 Cloudy 52 11.2 46 7.6 79 79 W 7 11 29.86 1011 N/A 0 0
6:35 am 06:35 Cloudy 52 11 46 7.8 81 81 WSW 9 15 29.85 1011 N/A 0 0
6:55 am 06:55 undefined 51 10.7 47 8.2 85 85 WSW 9 15 29.85 1011 N/A 0 0
7:15 am 07:15 Cloudy 51 10.3 48 8.7 90 90 WSW 7 11 29.86 1011 N/A 0 0
7:35 am 07:35 Cloudy 50 10.1 48 8.9 92 92 WSW 8 13 29.86 1011 N/A 0 0
7:55 am 07:55 Cloudy 50 9.9 48 8.9 94 94 W 3 6 29.86 1011 N/A 0 0
8:15 am 08:15 undefined 50 9.9 48 8.8 93 93 W 8 13 29.86 1011 N/A 0 0
8:35 am 08:35 undefined 50 9.8 47 8.5 92 92 W 8 13 29.85 1011 N/A 0 0
8:55 am 08:55 undefined 50 10 48 9 94 94 WSW 7 11 29.85 1011 N/A 0 0
9:15 am 09:15 Cloudy 49 9.6 48 9 96 96 WSW 6 9 29.84 1010 N/A 0 0
9:35 am 09:35 Cloudy 49 9.7 48 9.1 96 96 WSW 5 7 29.83 1010 N/A 0 0
9:55 am 09:55 undefined 49 9.7 49 9.2 97 97 W 6 9 29.82 1010 N/A 0 0
10:15 am 10:15 undefined 50 9.9 49 9.2 95 95 W 7 11 29.83 1010 N/A 0 0
10:35 am 10:35 undefined 50 10 49 9.2 95 95 W 7 11 29.83 1010 N/A 0 0
10:55 am 10:55 undefined 50 9.9 48 9.1 95 95 W 7 11 29.83 1010 N/A 0 0
11:15 am 11:15 undefined 48 8.8 44 6.7 87 87 NW 9 15 29.84 1011 N/A 0 0
11:35 am 11:35 Cloudy 48 9 45 7.3 89 89 WNW 6 9 29.84 1011 N/A 0 0
11:55 am 11:55 Cloudy 48 9.1 45 7.4 89 89 WNW 7 11 29.84 1011 N/A 0 0
12:15 pm 12:15 undefined 49 9.2 45 7.2 87 87 W 9 15 29.83 1010 N/A 0 0
12:35 pm 12:35 undefined 49 9.6 45 7 84 84 W 6 9 29.83 1010 N/A 0 0
12:55 pm 12:55 Cloudy 50 9.9 46 7.5 85 85 Calm 29.84 1010 N/A 0 0
1:15 pm 13:15 undefined 50 9.8 46 7.8 87 87 NNW 12 19 29.86 1011 N/A 0 0
1:35 pm 13:35 Cloudy 49 9.2 42 5.8 80 80 N 14 22 29.86 1011 N/A 0 0
1:55 pm 13:55 Cloudy 49 9.3 41 5.1 75 75 N 13 20 29.86 1011 N/A 0 0
2:15 pm 14:15 Mostly Cloudy 50 9.8 40 4.6 70 70 N 20 31 29.86 1011 N/A 0 0
2:35 pm 14:35 Mostly Cloudy 49 9.5 38 3.2 65 65 N 16 26 29.87 1012 N/A 0 0
2:55 pm 14:55 Mostly Cloudy 49 9.7 37 2.7 62 62 N 14 22 29.88 1012 N/A 0 0
3:15 pm 15:15 Mostly Cloudy 52 10.9 37 2.5 56 56 N 15 24 29.89 1012 N/A 0 0
3:35 pm 15:35 Sunny 51 10.8 35 1.4 53 53 N 15 24 29.89 1012 N/A 0 0
3:55 pm 15:55 Mostly Cloudy 51 10.8 34 1.1 51 51 N 18 30 29.9 1012 N/A 0 0
4:15 pm 16:15 Mostly Cloudy 53 11.5 33 0.7 48 48 NNE 14 22 29.9 1012 N/A 0 0
4:35 pm 16:35 Mostly Cloudy 51 10.4 31 -0.5 47 47 NNE 6 9 29.9 1012 N/A 0 0
4:55 pm 16:55 Mostly Cloudy 51 10.5 31 -0.6 46 46 N 15 24 29.9 1012 N/A 0 0
5:15 pm 17:15 Mostly Cloudy 52 10.9 31 -0.3 46 46 NNE 13 20 29.91 1013 N/A 0 0
5:35 pm 17:35 Mostly Cloudy 51 10.6 31 -0.7 46 46 NNW 9 15 29.91 1013 N/A 0 0
5:55 pm 17:55 Cloudy 52 11.2 28 -2.5 39 39 NNW 13 20 29.92 1013 N/A 0 0
6:15 pm 18:15 Cloudy 52 11.1 27 -2.8 38 38 N 16 26 29.93 1013 N/A 0 0
6:35 pm 18:35 Cloudy 53 11.5 27 -3 36 36 NNW 14 22 29.94 1014 N/A 0 0
6:55 pm 18:55 Partly Cloudy 51 10.7 23 -4.8 34 34 N 14 22 29.95 1014 N/A 0 0
7:15 pm 19:15 Partly Cloudy 51 10.5 24 -4.6 35 35 NNW 13 20 29.95 1014 N/A 0 0
7:35 pm 19:35 Partly Cloudy 49 9.6 22 -5.5 34 34 NNW 20 31 29.97 1015 N/A 0 0
7:55 pm 19:55 Sunny 48 8.7 22 -5.5 36 36 NW 15 24 29.99 1016 N/A 0 0
8:15 pm 20:15 Sunny 46 7.7 22 -5.6 39 39 NNW 15 24 30.01 1016 N/A 0 0
8:35 pm 20:35 Sunny 44 6.8 19 -7 37 37 NNW 17 28 30.03 1017 N/A 0 0
8:55 pm 20:55 Clear 43 6.1 19 -7.5 37 37 NNW 15 24 30.05 1018 N/A 0 0
9:15 pm 21:15 Clear 42 5.4 17 -8.6 36 36 NNW 15 24 30.07 1018 N/A 0 0
9:35 pm 21:35 Clear 41 4.8 17 -8.3 38 38 NW 15 24 30.09 1019 N/A 0 0
9:55 pm 21:55 Clear 40 4.3 17 -8.6 39 39 NNW 13 20 30.1 1019 N/A 0 0
10:15 pm 22:15 Clear 39 3.9 17 -8.6 40 40 NW 14 22 30.12 1020 N/A 0 0
10:35 pm 22:35 Clear 38 3.6 17 -8.4 41 41 NW 14 22 30.14 1021 N/A 0 0
10:55 pm 22:55 Clear 38 3.3 17 -8.3 43 43 NW 13 20 30.15 1021 N/A 0 0
11:15 pm 23:15 Clear 37 2.7 18 -8 46 46 NW 10 17 30.16 1021 N/A 0 0
11:35 pm 23:35 Clear 37 2.7 17 -8.5 44 44 NNW 10 17 30.17 1022 N/A 0 0
11:55 pm 23:55 Clear 36 2.3 17 -8.4 45 45 NNW 8 13 30.17 1022 N/A 0 0

Powered by AerisWeather